{"data":{"norad_id":56357,"intl_designator":"2023-058AS","name":"STARLINK-5538","alt_names":[],"object_type":"PAYLOAD","status":"ACTIVE","operator":null,"country":"US","launch_date":"2023-04-27","launch_site_code":"AFWTR","launch_vehicle":null,"mission":null,"orbit_class":"UNKNOWN","rcs_meters":null,"size_class":null,"mass_kg":null,"dimensions":null,"purposes":["comms"],"wikipedia_slug":null,"has_3d_model":false,"image_url":null,"decayed_at":null,"tle_current":{"epoch":"2026-05-25T00:03:28.420128Z","epoch_age_seconds":81786,"freshness":"FRESH","line1":"1 56357U 23058AS  26145.00241227 -.00001473  00000+0 -98029-4 0  9998","line2":"2 56357  97.4485 146.1373 0002291  99.7751 260.3735 15.05658533169689","mean_motion":15.05658533,"eccentricity":0.0002291,"inclination_deg":97.4485,"raan_deg":146.1373,"arg_perigee_deg":99.7751,"mean_anomaly_deg":260.3735,"bstar":-9.8029e-5,"rev_number":16968,"period_min":95.639214897605,"perigee_km":547.89786183557,"apogee_km":551.07209822682,"semimajor_km":6927.6219800312,"source":"CELESTRAK","updated_at":"2026-05-25T13:38:18.008788Z"}}}